Regional Weather Roundup
Issued by NWS

Home | Current Version | Previous Version | Graphics & Text | Print | Product List | Glossary On
Versions: 1 2 3 4 5 6 7 8 9 10 11 12 13 14 15 16 17 18 19 20 21 22 23 24 25 26 27 28 29 30 31 32 33 34 35 36 37 38 39 40 41 42 43 44 45 46 47 48 49 50
000
ASUS43 KIND 281859
RWRIN

WEATHER ROUNDUP FOR INDIANA
NATIONAL WEATHER SERVICE INDIANAPOLIS IN
200 PM EST SAT FEB 28 2015

NOTE: "FAIR" INDICATES FEW OR NO CLOUDS BELOW 12,000 FEET WITH NO
SIGNIFICANT WEATHER AND/OR OBSTRUCTIONS TO VISIBILITY.

* - STATION DOES NOT REPORT WEATHER SUCH AS PRECIPITATION OR FOG.

+ - STATION NOT QUALITY CONTROLLED BY THE NATIONAL WEATHER SERVICE.
    USE DATA WITH CAUTION...ESPECIALLY DEWPOINT AND RELATIVE
    HUMIDITY OBSERVATIONS.

INZ001>003-010>013-019-020-282000-
NORTHWEST INDIANA

CITY           SKY/WX    TMP DP  RH WIND       PRES   REMARKS
VALPARAISO     NOT AVBL

$$

LMZ046-743>745-282000-
SOUTHERN LAKE MICHIGAN

STATION/POSITION TIME  TEMP WIND        PRES
                       AIR  DIR/SP/G
                 (UTC) (F)  (DEG/KT/KT) (MB)
MICHIGAN CITY    1800   16  130/  8/ 11   N/A

$$

INZ004-005-014>016-021>024-282000-
NORTH CENTRAL INDIANA

CITY           SKY/WX    TMP DP  RH WIND       PRES   REMARKS
ELKHART        SUNNY     19   0  42 S9        30.67F WCI   9
GOSHEN         PTSUNNY   22   4  46 SE6       30.65F WCI  14
SOUTH BEND     PTSUNNY   20   3  48 S9        30.65F WCI   9

$$

INZ006>009-017-018-025>027-282000-
NORTHEAST INDIANA

CITY           SKY/WX    TMP DP  RH WIND       PRES   REMARKS
ANGOLA *+      SUNNY     16   1  53 S8        30.66F WCI   5
FORT WAYNE     PTSUNNY   20   4  50 SE10      30.67F WCI   9

$$

INZ028-029-035-036-043>045-051>053-282000-
WEST CENTRAL INDIANA

CITY           SKY/WX    TMP DP  RH WIND       PRES   REMARKS
CRAWFORDSVL +  SUNNY     21   1  40 E9        30.61F WCI  11
GREENCASTLE +  SUNNY     25   3  39 E9        30.60F WCI  15
LAFAYETTE      SUNNY     24   9  52 SE9       30.63F WCI  14
TERRE HAUTE    SUNNY     25   5  42 SE9       30.60F WCI  15

$$

INZ030>032-037>040-046>048-054>057-064-065-282000-
CENTRAL INDIANA

CITY           SKY/WX    TMP DP  RH WIND       PRES   REMARKS
ANDERSON       CLOUDY    23   3  42 SE12      30.64F WCI  12
GREENWOOD *+   SUNNY     23   1  39 SE10      30.63F WCI  12
INDIANAPOLIS   MOSUNNY   23   5  46 SE12      30.61F WCI  12
-EAGLE CREEK   SUNNY     23   4  44 SE12      30.62F WCI  12
KOKOMO *+      SUNNY     21   9  58 SE10      30.64F WCI  10
MT COMFORT *+  SUNNY     25  -4  28 SE7       30.63F WCI  17
SHELBYVILLE    SUNNY     24   7  48 E8        30.63F WCI  15

$$

INZ033-034-041-042-049-050-058-059-282000-
EAST CENTRAL INDIANA

CITY           SKY/WX    TMP DP  RH WIND       PRES   REMARKS
MUNCIE         CLOUDY    21   6  52 E10       30.63F WCI  10

$$

INZ060-061-067>069-081>083-085>088-282000-
SOUTHWEST INDIANA

CITY           SKY/WX    TMP DP  RH WIND       PRES   REMARKS
EVANSVILLE     CLOUDY    31  13  47 E8        30.58F WCI  23
HUNTINGBURG *+ PTSUNNY   30  12  47 SE10      30.58F WCI  21

$$

INZ062-063-066-070>080-084-089>092-282000-
SOUTH CENTRAL AND SOUTHEAST INDIANA

CITY           SKY/WX    TMP DP  RH WIND       PRES   REMARKS
BLOOMINGTON    MOSUNNY   26   3  37 E8        30.58F WCI  18
SEYMOUR +      CLOUDY    30  10  43 E8        30.61F WCI  23

$$




USA.gov is the U.S. government's official web portal to all federal, state and local government web resources and services.